EW1653 Weather Reports


Display with metric or nautical units.
time (UTC)temp
F
wind
direction
speed
MPH
gust
MPH
rain 1hr
in
rain 24hr
in
rain mn
in
humidity
%
barometer
mb
20191014110525 61 305 0.0 0.0 0.00 0.22 0.01 94 1015.0
20191014110039 61 305 0.0 0.0 0.00 0.22 0.01 94 1014.9
20191014105530 62 305 0.0 0.0 0.00 0.22 0.01 94 1014.9
20191014105024 62 305 0.0 0.0 0.00 0.22 0.01 94 1014.8
20191014104542 62 305 0.0 0.0 0.00 0.22 0.01 95 1014.8
20191014104023 62 305 0.0 0.0 0.00 0.22 0.01 94 1014.7
20191014103529 62 309 0.0 0.0 0.00 0.22 0.01 94 1014.6
20191014103107 62 309 0.0 0.0 0.00 0.22 0.01 94 1014.5
20191014102523 62 308 0.0 0.0 0.00 0.22 0.01 94 1014.7
20191014102025 62 311 0.0 2.0 0.00 0.22 0.01 94 1014.6
20191014101602 62 311 0.0 2.0 0.00 0.22 0.01 94 1014.6
20191014101024 62 311 0.0 0.0 0.00 0.22 0.01 94 1014.6
20191014100521 62 311 0.0 0.0 0.00 0.22 0.01 94 1014.6
20191014100024 62 311 0.0 0.0 0.00 0.22 0.01 94 1014.5
20191014095520 62 311 0.0 0.0 0.00 0.22 0.01 94 1014.5
20191014095024 62 328 0.0 1.0 0.00 0.22 0.01 94 1014.4
20191014094528 62 328 0.0 3.0 0.00 0.22 0.01 94 1014.2
20191014094019 63 351 0.0 3.0 0.00 0.22 0.01 94 1014.3
20191014093519 63 313 0.0 2.0 0.00 0.22 0.01 94 1014.4
20191014093042 63 341 0.0 3.0 0.00 0.22 0.01 94 1014.3
20191014092518 63 312 0.0 3.0 0.00 0.22 0.01 94 1014.3
20191014092028 63 308 1.0 3.0 0.00 0.22 0.01 94 1014.2
20191014091526 63 290 0.0 3.0 0.00 0.22 0.01 94 1014.1
20191014091020 63 321 1.0 6.0 0.01 0.22 0.01 94 1014.3
20191014090515 63 347 1.0 6.0 0.01 0.22 0.01 94 1014.2
20191014090059 64 306 0.0 4.0 0.01 0.22 0.01 94 1014.2
20191014085514 64 273 1.0 5.0 0.01 0.22 0.01 94 1014.3
20191014085015 64 309 1.0 5.0 0.01 0.22 0.01 94 1014.2
20191014084521 64 346 1.0 4.0 0.01 0.22 0.01 94 1014.1
20191014084013 64 349 1.0 4.0 0.01 0.22 0.01 95 1014.2
20191014083517 65 288 0.0 2.0 0.01 0.22 0.01 95 1014.0
20191014083016 65 308 0.0 2.0 0.01 0.22 0.01 95 1014.1
20191014082514 65 302 0.0 1.0 0.01 0.22 0.01 95 1013.9
20191014082012 65 291 0.0 2.0 0.01 0.22 0.01 95 1013.9
20191014081533 65 278 0.0 2.0 0.01 0.22 0.01 95 1013.9
20191014081011 65 304 0.0 1.0 0.00 0.21 0.00 95 1013.8
20191014080511 65 288 0.0 1.0 0.00 0.21 0.00 95 1013.8
20191014080119 65 289 0.0 1.0 0.00 0.21 0.00 95 1013.7
20191014075516 65 294 0.0 1.0 0.00 0.21 0.00 95 1013.7
20191014075018 65 259 0.0 1.0 0.00 0.21 0.00 95 1013.7
20191014074512 65 259 0.0 1.0 0.00 0.21 0.00 95 1013.7
20191014074014 65 258 0.0 2.0 0.00 0.21 0.00 95 1013.7
20191014073511 65 218 0.0 2.0 0.00 0.21 0.00 95 1013.7
20191014073011 65 226 0.0 1.0 0.00 0.21 0.00 95 1013.7
20191014072514 65 225 0.0 1.0 0.00 0.21 0.00 94 1013.7
20191014072010 65 210 0.0 2.0 0.00 0.21 0.00 94 1013.7
20191014071539 65 208 0.0 2.0 0.00 0.21 0.00 94 1013.7
20191014071010 65 210 0.0 3.0 0.00 0.21 0.00 95 1013.6
20191014070509 65 212 0.0 2.0 0.00 0.21 0.00 94 1013.9
20191014070010 65 214 0.0 3.0 0.00 0.21 0.00 95 1013.9
20191014065511 65 214 0.0 3.0 0.00 0.21 0.00 95 1014.0
20191014065007 65 223 0.0 4.0 0.00 0.21 0.00 95 1014.0
20191014064531 65 181 1.0 3.0 0.00 0.21 0.00 94 1014.1
20191014064009 65 200 1.0 4.0 0.00 0.21 0.00 95 1014.2
20191014063505 65 209 1.0 5.0 0.00 0.21 0.00 95 1014.2
20191014063007 65 214 1.0 5.0 0.00 0.21 0.00 95 1014.2
20191014062509 65 212 0.0 2.0 0.00 0.21 0.00 94 1014.2
20191014062005 65 205 0.0 2.0 0.00 0.21 0.00 94 1014.2
20191014061505 65 184 0.0 3.0 0.00 0.21 0.00 94 1014.2
20191014061003 65 210 0.0 4.0 0.00 0.21 0.00 95 1014.4
20191014060508 65 205 1.0 4.0 0.00 0.21 0.00 94 1014.5
20191014060006 65 196 2.0 4.0 0.00 0.21 0.00 94 1014.5
20191014055511 64 181 1.0 4.0 0.00 0.21 0.00 94 1014.6
20191014055003 64 188 0.0 2.0 0.00 0.21 0.00 94 1014.5
20191014054502 65 150 1.0 2.0 0.00 0.21 0.00 94 1014.5
20191014054001 64 174 0.0 2.0 0.00 0.21 0.00 94 1014.6
20191014053502 64 196 0.0 2.0 0.00 0.21 0.00 94 1014.6
20191014053245 64 189 0.0 2.0 0.00 0.21 0.00 94 1014.7
20191014052602 64 198 0.0 0.0 0.00 0.21 0.00 94 1014.8
20191014052103 64 217 0.0 1.0 0.00 0.21 0.00 94 1014.9
20191014051749 64 238 0.0 1.0 0.00 0.21 0.00 94 1014.9
20191014051059 64 238 0.0 0.0 0.00 0.21 0.00 94 1015.0
20191014050558 64 238 0.0 0.0 0.00 0.21 0.00 94 1015.0
20191014050147 64 238 0.0 0.0 0.00 0.21 0.00 94 1014.9
20191014045558 65 238 0.0 0.0 0.00 0.21 0.00 94 1014.8
20191014045057 65 238 0.0 1.0 0.00 0.21 0.00 94 1015.1
20191014044644 65 238 0.0 2.0 0.00 0.21 0.00 94 1015.2
20191014044056 65 217 0.0 2.0 0.00 0.21 0.00 94 1015.1
20191014043559 65 212 0.0 1.0 0.00 0.21 0.00 94 1015.0
20191014043151 65 241 0.0 3.0 0.00 0.21 0.00 94 1015.2
20191014042554 65 210 0.0 4.0 0.00 0.21 0.00 94 1015.2
20191014042100 65 238 1.0 5.0 0.00 0.21 0.00 94 1015.2
20191014041721 65 190 2.0 5.0 0.00 0.21 0.00 94 1015.2
20191014041055 65 220 0.0 4.0 0.00 0.21 0.00 94 1015.3
20191014040555 65 229 1.0 4.0 0.00 0.21 0.00 94 1015.4
20191014040141 65 211 1.0 7.0 0.00 0.21 0.00 94 1015.3
20191014035552 65 190 2.0 7.0 0.00 0.21 0.21 94 1015.4
20191014035057 65 196 2.0 8.0 0.00 0.21 0.21 94 1015.3
20191014034703 65 195 3.0 8.0 0.00 0.21 0.21 94 1015.4
20191014034051 65 200 3.0 6.0 0.00 0.21 0.21 94 1015.5
20191014033550 65 197 3.0 7.0 0.00 0.21 0.21 94 1015.5
20191014033200 65 179 3.0 5.0 0.00 0.21 0.21 94 1015.4
20191014032552 65 215 1.0 5.0 0.00 0.21 0.21 94 1015.5
20191014032052 65 168 2.0 5.0 0.00 0.21 0.21 94 1015.4
20191014031710 65 167 1.0 4.0 0.00 0.21 0.21 94 1015.3
20191014031110 65 188 0.0 3.0 0.00 0.21 0.21 94 1015.3
20191014030550 65 160 1.0 3.0 0.00 0.21 0.21 94 1015.2
20191014030243 65 192 0.0 4.0 0.00 0.21 0.21 94 1015.2
20191014025555 65 193 1.0 4.0 0.00 0.21 0.21 94 1015.3
20191014025049 65 192 0.0 5.0 0.00 0.21 0.21 94 1015.3
20191014024720 65 210 1.0 5.0 0.00 0.21 0.21 94 1015.4
20191014024049 65 185 1.0 4.0 0.01 0.21 0.21 94 1015.4
20191014023553 65 184 1.0 6.0 0.01 0.21 0.21 94 1015.3
20191014023224 65 181 2.0 8.0 0.02 0.21 0.21 94 1015.3
20191014022548 65 161 3.0 8.0 0.03 0.21 0.21 94 1015.2
20191014022048 65 199 2.0 6.0 0.04 0.21 0.21 94 1015.2
20191014021658 65 158 2.0 6.0 0.05 0.21 0.21 94 1015.4
20191014021054 65 150 1.0 7.0 0.05 0.21 0.21 94 1015.8
20191014020603 65 164 3.0 7.0 0.06 0.21 0.21 93 1015.7
20191014020128 65 167 2.0 6.0 0.07 0.21 0.21 93 1015.8
20191014015548 65 132 3.0 6.0 0.08 0.21 0.21 93 1015.7
20191014015055 65 158 2.0 5.0 0.09 0.21 0.21 93 1016.1
20191014014640 64 184 1.0 3.0 0.09 0.20 0.20 93 1016.1
20191014014046 64 198 1.0 4.0 0.10 0.20 0.20 93 1015.8
20191014013546 64 182 1.0 6.0 0.11 0.20 0.20 93 1015.4
20191014013117 64 162 2.0 6.0 0.11 0.19 0.19 93 1015.5
20191014012545 64 161 1.0 6.0 0.11 0.18 0.18 93 1015.5
20191014012045 64 146 1.0 3.0 0.11 0.17 0.17 93 1015.8
20191014011719 64 164 1.0 6.0 0.11 0.16 0.16 93 1015.7
20191014011044 64 143 2.0 7.0 0.12 0.16 0.16 93 1015.7
20191014010544 64 96 3.0 7.0 0.12 0.15 0.15 92 1015.5
20191014010134 64 128 3.0 7.0 0.12 0.14 0.14 92 1015.6
20191014005546 64 129 3.0 7.0 0.12 0.13 0.13 92 1016.0
20191014005042 64 155 2.0 5.0 0.11 0.12 0.12 92 1016.1
20191014004642 63 137 1.0 4.0 0.11 0.11 0.11 92 1016.2
20191014004045 63 155 0.0 1.0 0.10 0.10 0.10 91 1016.2
20191014003548 63 135 0.0 1.0 0.09 0.09 0.09 91 1016.1
20191014003128 63 148 0.0 2.0 0.08 0.08 0.08 91 1016.1
20191014002548 63 68 0.0 3.0 0.07 0.07 0.07 91 1016.2
20191014002039 63 127 0.0 3.0 0.06 0.06 0.06 91 1016.2
20191014001703 63 170 0.0 2.0 0.05 0.05 0.05 91 1016.3
20191014001039 63 116 0.0 2.0 0.04 0.04 0.04 91 1016.3
20191014000545 63 111 0.0 1.0 0.03 0.03 0.03 90 1016.4
20191014000216 63 142 0.0 1.0 0.02 0.02 0.02 90 1016.4
20191013235538 63 121 0.0 3.0 0.01 0.01 0.01 90 1016.2
20191013235046 63 99 1.0 3.0 0.01 0.01 0.01 90 1016.2
20191013234628 63 98 0.0 4.0 0.00 0.00 0.00 90 1016.1
20191013234037 63 89 0.0 4.0 0.00 0.00 0.00 90 1016.1
20191013233547 63 82 1.0 5.0 0.00 0.00 0.00 90 1016.2
20191013233129 63 113 0.0 5.0 0.00 0.00 0.00 90 1016.3
20191013232545 63 82 1.0 5.0 0.00 0.00 0.00 89 1016.0
20191013232036 63 82 1.0 4.0 0.00 0.00 0.00 89 1016.1
20191013231618 63 122 0.0 4.0 0.00 0.00 0.00 89 1016.1
20191013231046 63 89 0.0 4.0 0.00 0.00 0.00 89 1016.3
20191013230537 63 87 0.0 2.0 0.00 0.00 0.00 89 1016.4
20191013230107 63 99 0.0 4.0 0.00 0.00 0.00 89 1016.3
20191013225535 63 98 0.0 4.0 0.00 0.00 0.00 89 1016.3
20191013225035 63 80 0.0 2.0 0.00 0.00 0.00 88 1016.4
20191013224628 63 96 0.0 3.0 0.00 0.00 0.00 88 1016.4
20191013224044 63 82 0.0 3.0 0.00 0.00 0.00 88 1016.5
20191013223543 63 106 0.0 2.0 0.00 0.00 0.00 88 1016.4
20191013223119 63 131 0.0 3.0 0.00 0.00 0.00 88 1016.5
20191013222544 63 96 1.0 3.0 0.00 0.00 0.00 88 1016.5
20191013222033 63 80 0.0 3.0 0.00 0.00 0.00 88 1016.5
20191013221547 63 81 1.0 3.0 0.00 0.00 0.00 88 1016.5
20191013221038 63 96 0.0 4.0 0.00 0.00 0.00 87 1016.6
20191013220536 63 77 0.0 4.0 0.00 0.00 0.00 87 1016.6
20191013220126 63 66 1.0 4.0 0.00 0.00 0.00 87 1016.7
20191013215536 63 78 1.0 5.0 0.00 0.00 0.00 87 1016.7
20191013215033 64 81 1.0 5.0 0.00 0.00 0.00 87 1016.6
20191013214646 64 91 1.0 5.0 0.00 0.00 0.00 86 1016.6
20191013214031 64 81 2.0 5.0 0.00 0.00 0.00 86 1016.5
20191013213531 64 89 2.0 5.0 0.00 0.00 0.00 86 1016.6
20191013213056 64 88 1.0 6.0 0.00 0.00 0.00 85 1016.5
20191013212531 64 84 3.0 6.0 0.00 0.00 0.00 85 1016.4
20191013212036 64 66 2.0 5.0 0.00 0.00 0.00 84 1016.5
20191013211606 64 128 1.0 5.0 0.00 0.00 0.00 83 1016.5
20191013211033 65 92 2.0 5.0 0.00 0.00 0.00 82 1016.6
20191013210530 65 86 1.0 4.0 0.00 0.00 0.00 81 1016.9
20191013210150 65 89 1.0 4.0 0.00 0.00 0.00 80 1017.0
20191013205530 65 101 1.0 4.0 0.00 0.00 0.00 79 1017.1
20191013205040 65 136 0.0 6.0 0.00 0.00 0.00 78 1017.0
20191013204611 66 73 2.0 6.0 0.00 0.00 0.00 78 1016.9
20191013204032 66 64 1.0 4.0 0.00 0.00 0.00 77 1016.9
20191013203528 66 122 0.0 5.0 0.00 0.00 0.00 76 1017.0
20191013203108 66 96 2.0 6.0 0.00 0.00 0.00 76 1017.0
20191013202532 66 81 2.0 7.0 0.00 0.00 0.00 76 1016.9
20191013202028 66 58 2.0 7.0 0.00 0.00 0.00 76 1017.1
20191013201626 66 86 2.0 7.0 0.00 0.00 0.00 76 1017.1
20191013201033 66 78 1.0 5.0 0.00 0.00 0.00 76 1017.1
20191013200534 66 75 1.0 4.0 0.00 0.00 0.00 76 1017.2
20191013200056 66 114 1.0 4.0 0.00 0.00 0.00 76 1017.1
20191013195532 66 79 1.0 4.0 0.00 0.00 0.00 75 1017.1
20191013195033 66 114 1.0 4.0 0.00 0.00 0.00 75 1017.3
20191013194635 66 114 0.0 4.0 0.00 0.00 0.00 75 1017.3
20191013194033 67 95 1.0 7.0 0.00 0.00 0.00 74 1017.3
20191013193526 67 90 3.0 7.0 0.00 0.00 0.00 74 1017.2
20191013193126 67 76 1.0 5.0 0.00 0.00 0.00 74 1017.1
20191013192531 67 110 2.0 5.0 0.00 0.00 0.00 73 1017.0
20191013192033 68 97 2.0 6.0 0.00 0.00 0.00 73 1017.1
20191013191548 67 95 3.0 6.0 0.00 0.00 0.00 73 1017.1
20191013191031 67 89 1.0 7.0 0.00 0.00 0.00 74 1017.2
20191013190531 67 68 3.0 7.0 0.00 0.00 0.00 73 1017.1
20191013190049 67 101 2.0 8.0 0.00 0.00 0.00 73 1017.2
20191013185525 68 67 3.0 8.0 0.00 0.00 0.00 73 1017.2
20191013185024 67 95 3.0 10.0 0.00 0.00 0.00 74 1017.1
20191013184630 67 77 4.0 10.0 0.00 0.00 0.00 74 1017.0
20191013184029 67 78 5.0 10.0 0.00 0.00 0.00 73 1017.2
20191013183524 67 101 5.0 9.0 0.00 0.00 0.00 74 1017.4
20191013183057 66 74 3.0 12.0 0.00 0.00 0.00 75 1017.4
20191013182530 66 86 4.0 12.0 0.00 0.00 0.00 75 1017.4
20191013182023 66 74 4.0 9.0 0.00 0.00 0.00 74 1017.5
20191013181612 66 63 3.0 11.0 0.00 0.00 0.00 74 1017.7
20191013181032 66 57 5.0 11.0 0.00 0.00 0.00 73 1017.6
20191013180527 66 88 5.0 11.0 0.00 0.00 0.00 72 1017.6
20191013180117 66 131 2.0 8.0 0.00 0.00 0.00 74 1017.7
20191013175521 65 85 5.0 8.0 0.00 0.00 0.00 73 1017.7
20191013175032 66 112 4.0 8.0 0.00 0.00 0.00 73 1017.7
20191013174541 66 99 2.0 9.0 0.00 0.00 0.00 73 1017.9
20191013174021 65 44 4.0 10.0 0.00 0.00 0.00 72 1017.8
20191013173521 65 53 4.0 10.0 0.00 0.00 0.00 73 1018.1
20191013173045 65 64 5.0 10.0 0.00 0.00 0.00 72 1018.2
20191013172527 65 59 5.0 9.0 0.00 0.00 0.00 71 1018.2
20191013172020 65 70 5.0 9.0 0.00 0.00 0.00 70 1018.3
20191013171538 66 86 3.0 9.0 0.00 0.00 0.00 69 1018.4
20191013171027 66 68 3.0 7.0 0.00 0.00 0.00 69 1018.4
20191013170533 67 70 3.0 6.0 0.00 0.00 0.00 67 1018.5
20191013170052 67 110 2.0 6.0 0.00 0.00 0.00 66 1018.6
20191013165529 67 148 2.0 7.0 0.00 0.00 0.00 67 1018.8
20191013165021 67 155 2.0 8.0 0.00 0.00 0.00 67 1018.6
20191013164533 67 103 4.0 8.0 0.00 0.00 0.00 67 1018.6
20191013164026 66 73 1.0 7.0 0.00 0.00 0.00 68 1018.6
20191013163524 66 79 2.0 8.0 0.00 0.00 0.00 68 1018.8
20191013163050 66 95 3.0 8.0 0.00 0.00 0.00 68 1018.8
20191013162516 66 71 3.0 9.0 0.00 0.00 0.00 66 1018.8
20191013162025 66 109 4.0 9.0 0.00 0.00 0.00 66 1018.8
20191013161604 66 117 1.0 8.0 0.00 0.00 0.00 68 1018.9
20191013161014 65 106 3.0 8.0 0.00 0.00 0.00 68 1018.9
20191013160513 65 56 3.0 7.0 0.00 0.00 0.00 67 1018.9
20191013160043 65 63 3.0 7.0 0.00 0.00 0.00 69 1018.9
20191013155511 64 59 2.0 5.0 0.00 0.00 0.00 71 1019.0
20191013155013 64 65 1.0 6.0 0.00 0.00 0.00 71 1019.3
20191013154513 64 17 2.0 6.0 0.00 0.00 0.00 71 1019.2
20191013154017 63 6 2.0 5.0 0.00 0.00 0.00 71 1019.3
20191013153515 63 45 1.0 5.0 0.00 0.00 0.00 72 1019.2
20191013153011 63 45 1.0 4.0 0.00 0.00 0.00 72 1019.2
20191013152505 62 59 2.0 6.0 0.00 0.00 0.00 72 1019.0
20191013152005 62 66 1.0 6.0 0.00 0.00 0.00 71 1019.0
20191013151536 62 74 0.0 5.0 0.00 0.00 0.00 72 1019.0
20191013151005 62 77 1.0 5.0 0.00 0.00 0.00 71 1019.2
20191013150508 62 91 2.0 5.0 0.00 0.00 0.00 71 1019.1
20191013150020 62 51 2.0 5.0 0.00 0.00 0.00 71 1019.2
20191013145505 62 322 0.0 5.0 0.00 0.00 0.00 71 1019.6
20191013145006 62 66 1.0 5.0 0.00 0.00 0.00 71 1019.7
20191013144503 62 28 1.0 5.0 0.00 0.00 0.00 72 1019.6
20191013144002 62 87 2.0 4.0 0.00 0.00 0.00 72 1019.6
20191013143505 62 32 0.0 3.0 0.00 0.00 0.00 73 1019.7
20191013143001 62 51 0.0 5.0 0.00 0.00 0.00 74 1019.5
20191013142105 61 35 1.0 5.0 0.00 0.00 0.00 73 1019.5
20191013141756 61 39 1.0 6.0 0.00 0.00 0.00 73 1019.5
20191013141057 60 21 2.0 6.0 0.00 0.00 0.00 74 1019.6
20191013140556 60 11 2.0 5.0 0.00 0.00 0.00 75 1019.6
20191013140137 60 75 2.0 5.0 0.00 0.00 0.00 74 1019.5
20191013135610 59 35 0.0 5.0 0.00 0.00 0.00 75 1019.7
20191013135053 59 20 1.0 5.0 0.00 0.00 0.00 75 1019.7
20191013134809 59 60 0.0 3.0 0.00 0.00 0.00 76 1019.6
20191013134109 58 347 1.0 5.0 0.00 0.00 0.00 77 1019.6
20191013133553 58 4 1.0 7.0 0.00 0.00 0.00 76 1019.7
20191013133128 58 332 1.0 7.0 0.00 0.00 0.00 76 1019.6
20191013132604 58 30 0.0 4.0 0.00 0.00 0.00 76 1019.6
20191013132052 58 318 1.0 7.0 0.00 0.00 0.00 76 1019.7
20191013131644 59 335 1.0 7.0 0.00 0.00 0.00 75 1019.8
20191013131057 59 349 2.0 7.0 0.00 0.00 0.00 75 1019.8
20191013130604 59 15 4.0 7.0 0.00 0.00 0.00 75 1020.0
20191013130133 59 46 1.0 7.0 0.00 0.00 0.00 75 1019.9
20191013125603 59 353 0.0 5.0 0.00 0.00 0.00 76 1019.5
20191013125047 58 44 1.0 5.0 0.00 0.00 0.00 77 1019.3
20191013124724 58 11 0.0 2.0 0.00 0.00 0.00 78 1019.3
20191013124053 57 335 0.0 2.0 0.00 0.00 0.00 79 1019.2
20191013123554 56 4 0.0 4.0 0.00 0.00 0.00 80 1019.2
20191013123141 56 56 0.0 2.0 0.00 0.00 0.00 80 1019.3
20191013122540 55 327 0.0 3.0 0.00 0.00 0.00 81 1019.2
20191013122048 55 301 0.0 3.0 0.00 0.00 0.00 81 1019.1
20191013121613 55 346 0.0 2.0 0.00 0.00 0.00 81 1019.1
20191013121042 55 4 0.0 2.0 0.00 0.00 0.00 81 1019.0
20191013120540 55 1 0.0 3.0 0.00 0.00 0.00 81 1019.1
20191013115540 54 337 1.0 7.0 0.00 0.00 0.00 82 1019.0
20191013115045 54 330 2.0 7.0 0.00 0.00 0.00 82 1019.0
20191013114622 54 338 2.0 4.0 0.00 0.00 0.00 82 1019.0
20191013114038 54 329 0.0 4.0 0.00 0.00 0.00 82 1019.0
20191013113545 54 306 0.0 3.0 0.00 0.00 0.00 82 1018.9
20191013113125 54 340 1.0 3.0 0.00 0.00 0.00 82 1019.0
20191013112542 54 328 0.0 3.0 0.00 0.00 0.00 82 1018.9
20191013112036 54 2 0.0 3.0 0.00 0.00 0.00 82 1018.8
20191013111703 54 331 0.0 2.0 0.00 0.00 0.00 82 1018.9
20191013111037 54 342 0.0 2.0 0.00 0.00 0.00 81 1018.9